Погода в Аскоте

Великобритания     51°24′38″N   0°40′04″E
темп.,
°C
ветер,
м/с
пор.,
м/с
влажн.,
%
обл.,
%
осадки,
мм/ч
давл.,
гПа
погр.,
м
10 мая, пн
пн1001:00+10ююз41092100 0.3 996354
04:00+9ююз51295100 0.0 996471
07:00+10ююз61289100 0.1 997896
10:00+11ююз7128297 0.1 9991116
13:00+14ююз10146940 0.9 10001620
16:00+14ююз914605 0.1 10021693
19:00+12ююз712711 0.1 10041125
22:00+7ю389114 0.0 1005164
11 мая, вт
вт1101:00+6ю249430 0.0 100765
04:00+5юз22914 0.0 100611
07:00+8вюв24865 0.0 1007143
10:00+13ююв576643 0.1 10071261
13:00+13ю7974100 0.9 10071227
16:00+13ю81262100 0.3 10061630
19:00+11ююз712775 0.4 10071124
22:00+9ююз5129252 0.0 1008540
12 мая, ср
ср1201:00+10ююз71178100 0.0 1009840
04:00+9ююз5983100 0.1 1009673
07:00+10ююз598892 0.1 1010691
10:00+12ююз577649 0.3 1010979
13:00+15юз675739 1.4 10101865
16:00+15ююз665332 0.1 10101838
19:00+12ююз47675 0.1 1011593
22:00+7юз33895 0.0 101239
13 мая, чт
чт1301:00+5юз229318 0.0 101218
04:00+5ююз229486 0.0 101220
07:00+7зюз1389100 0.0 1012114
10:00+10зюз2275100 0.1 1011398
13:00+9ююв1182100 0.3 1012157
16:00+9зсз2391100 2.2 1011155
19:00+9сз2294100 3.1 101173
22:00+9ссз1193100 0.4 101111
14 мая, пт
пт1401:00+8ссв2296100 1.6 101143
04:00+9св2496100 1.7 101090
07:00+9всв1190100 2.3 101141
10:00+12всв237491 0.1 1011932
13:00+13с227497 1.4 1012714
16:00+13с3377100 1.8 1011810
19:00+10ссв3792100 2.8 1012300
22:00+9св489299 0.2 1013311